Regional Weather Roundup
Issued by NWS

Home | Current Version | Previous Version | Text Only | Print | Product List | Glossary Off
Versions: 1 2 3 4 5 6 7 8 9 10 11 12 13 14 15 16 17 18 19 20 21 22 23 24 25 26 27

000
ASUS45 KBOU 250206
RWRCO

WEATHER ROUNDUP FOR COLORADO
NATIONAL WEATHER SERVICE DENVER/BOULDER CO
800 PM MDT THU APR 24 2014

NOTE: "FAIR" INDICATES FEW OR NO CLOUDS BELOW 12000 FEET WITH NO
SIGNIFICANT WEATHER AND/OR OBSTRUCTIONS TO VISIBILITY.

COZ001>005-013-030-031-250300-
...NORTHWEST COLORADO...

CITY           SKY/WX    TMP DP  RH WIND       PRES   REMARKS
CRAIG          CLOUDY    52  21  29 W10       29.98R
HAYDEN         PTCLDY    50  19  29 NW10      30.01R
MEEKER         PTCLDY    52  21  29 SW6       29.99R
MOUNT WERNER   CLOUDY    36  12  38 W17       30.14R
STEAMBOAT SPGS CLOUDY    51  10  19 CALM      30.01R
WALDEN         MOCLDY    41  16  36 SW6       30.03R
$$

COZ006>008-011-250300-
...WEST CENTRAL VALLEYS...

CITY           SKY/WX    TMP DP  RH WIND       PRES   REMARKS
GRAND JUNCTION MOCLDY    60  14  16 CALM      29.96S
MONTROSE       CLOUDY    57  18  21 NW5       30.02R
EAGLE          MOCLDY    54  12  19 SW9G17    30.02R
RIFLE          PTCLDY    57  11  16 W10       29.98R
DELTA          NOT AVBL
NUCLA          NOT AVBL
$$

COZ017>023-064>068-250300-
...SOUTHWEST COLORADO...

CITY           SKY/WX    TMP DP  RH WIND       PRES   REMARKS
DURANGO        CLEAR     54 -12   6 SW8       30.05R
CORTEZ         CLEAR     57   3  11 NW3       30.03F
PAGOSA SPRINGS CLEAR     54  -6   8 CALM      30.10R
TELLURIDE      MOCLDY    46   7  19 W5        30.14R
WOLF CREEK PAS CLEAR     30   1  29 SW25G31   30.22S WCI  16
$$

COZ009-010-012-014-032>034-037-058>063-250300-
...CENTRAL COLORADO...

CITY           SKY/WX    TMP DP  RH WIND       PRES   REMARKS
ASPEN          MOCLDY    44  18  35 SW3       30.04R
BUENA VISTA    PTCLDY    49   7  17 NW14      30.04R
COPPER MTN     MOCLDY    34  10  37 W21       30.18R WCI  22
BERTHOUD PASS  FAIR      27  16  63 W23G30    30.16F WCI  12
COTTONWOOD PAS PTCLDY    43   3  19 NW6G18    30.10S
GUNNISON       PTCLDY    50   9  18 NW8       30.10R
KREMMLING      CLOUDY    52  10  19 SW8G17    30.02S
LEADVILLE      CLOUDY    38  11  32 NE3       30.11R
MONARCH PASS   PTCLDY    32   5  32 W33G46    30.28S WCI  17
SALIDA         PTCLDY    54   5  13 SW15      30.09R
SUNLIGHT       MOCLDY    34  19  55 CALM      30.16R
WILKERSON PASS CLEAR     36   9  32 W12G23    30.16R
$$

COZ069>075-250300-
...SAN LUIS VALLEY/SANGRE DE CRISTO MOUNTAINS...

CITY           SKY/WX    TMP DP  RH WIND       PRES   REMARKS
ALAMOSA        PTCLDY    53   9  17 SW17      30.01R
LA VETA PASS   CLEAR     41   1  19 SW13G28   30.11R
SAGUACHE       PTCLDY    52   5  15 NW13      30.04R
$$

COZ035-036-038>040-250300-
...NORTHERN COLORADO FRONT RANGE...

CITY           SKY/WX    TMP DP  RH WIND       PRES   REMARKS
DENVER INTL AP MOCLDY    52  33  48 E9        29.89R
DMNS CITY PARK   N/A     60  27  27 S8        29.87S
AURORA         NOT AVBL
FRONT RANGE AP NOT AVBL
ERIE MUNI ARPT MOCLDY    57  29  33 E10       29.88R
BOULDER MUN AP MOCLDY    55  32  41 NW6       29.89R
CENTENNIAL     MOCLDY    54  29  38 SE6       29.90R
BROOMFIELD     MOCLDY    59  28  31 S6        29.89R
FORT COLLINS   MOCLDY    54  27  35 SE9       29.90R
LONGMONT       NOT AVBL
$$

COZ041-046-047-076>085-087-088-250300-
...PIKES PEAK/PALMER DIVIDE AND SOUTHERN FOOTHILLS...

CITY           SKY/WX    TMP DP  RH WIND       PRES   REMARKS
COLO. SPRINGS  MOCLDY    53  19  26 SE6       29.95R
A. F. ACADEMY  PTCLDY    52  20  27 SE10      29.96
ELLICOTT       NOT AVBL
FALCON         PTCLDY    46  18  33 S6        29.98R
FORT CARSON    NOT AVBL
LIMON          CLEAR     47  18  31 SE6       29.93R
MONUMENT HILL  MOCLDY    45  27  49 S9        29.95R
TRINIDAD       CLEAR     61  21  21 N3        29.90R
$$

COZ042>045-048>051-090-091-250300-
...NORTHEAST COLORADO...

CITY           SKY/WX    TMP DP  RH WIND       PRES   REMARKS
GREELEY ARPT   MOCLDY    55  25  30 SE10      29.89R
AKRON          CLEAR     53  22  29 S6        29.89R
BURLINGTON     CLEAR     55  14  19 S3        29.91R
WRAY           MOCLDY    56  21  26 S6        29.87R
STERLING       NOT AVBL
HOLYOKE        NOT AVBL
FORT MORGAN    NOT AVBL
$$

COZ086-089-092>099-250300-
...SOUTHEAST COLORADO...

CITY           SKY/WX    TMP DP  RH WIND       PRES   REMARKS
PUEBLO         CLEAR     59  21  23 E12       29.88R
LA JUNTA       CLEAR     59  21  23 E15       29.86R
LAMAR          PTCLDY    58  22  24 SE9       29.87S
SPRINGFIELD      N/A     53  25  33 SE12      29.92R
$$



USA.gov is the U.S. government's official web portal to all federal, state and local government web resources and services.